Wind_Speed
101 106 108 111 111 107 112 114 108 106 108 119 112 107 100 100 96 97 101 99 100 101 98 96 91 86 87 90 90 85 85 81 79 77 80 82 87 83 74 74 75 77 79 74
92 100 107 113 114 113 113 116 113 116 116 123 113 106 98 105 106 103 102 100 95 91 93 96 97 90 88 89 86 83 83 84 81 83 85 87 80 69 68 73 77 78 73 73
94 97 101 105 110 117 118 118 118 118 125 129 120 112 105 101 104 103 101 98 93 86 85 86 86 87 90 93 90 89 84 82 82 86 83 72 68 69 72 76 77 74 69 68
88 96 103 106 107 112 118 123 124 123 125 121 124 123 118 112 104 108 103 101 94 89 86 87 84 83 83 82 83 80 76 75 76 74 70 70 72 71 76 75 72 68 66 62
85 92 99 103 106 112 111 117 123 126 127 126 125 119 109 113 112 113 108 107 104 96 92 90 91 86 81 72 71 72 74 75 79 75 75 79 78 73 76 74 67 66 61 57
84 90 94 102 104 107 112 114 118 119 121 127 121 124 110 112 111 111 110 113 107 100 100 95 93 88 80 79 78 79 81 80 78 75 78 79 78 72 73 65 64 59 55 55
80 85 88 94 95 102 106 107 112 115 116 107 109 116 111 107 110 110 111 109 110 108 107 108 98 92 89 89 85 82 84 85 81 82 78 73 71 68 61 59 58 53 53 50
67 71 79 81 82 85 93 97 101 105 105 105 108 103 97 99 107 107 102 100 99 98 100 97 88 86 88 88 84 77 75 72 70 67 64 64 62 58 54 53 50 50 48 42
55 60 63 67 70 75 79 84 88 90 92 97 97 93 92 91 97 98 96 99 100 97 91 87 83 80 82 78 72 68 63 60 59 57 56 55 52 51 51 48 47 45 40 36
45 50 50 56 59 64 66 74 74 77 80 85 89 87 83 85 81 95 99 97 88 87 87 81 77 75 74 72 68 63 59 56 54 51 49 48 46 47 46 46 42 38 34 36
39 39 41 44 46 50 52 58 62 64 67 74 77 73 83 75 79 87 98 90 83 77 71 74 72 71 69 69 66 61 56 51 48 46 46 46 44 44 44 39 37 35 33 36
34 33 34 34 38 44 47 50 51 55 63 63 63 64 67 64 68 86 79 81 80 73 69 65 66 69 67 65 60 55 52 48 45 44 42 41 43 42 36 34 35 30 31 37
28 27 27 29 34 38 40 43 45 51 51 49 53 56 62 62 65 72 73 77 74 71 65 60 57 54 53 55 52 49 47 43 42 38 37 40 38 34 32 33 30 29 35 37
21 20 20 24 30 28 25 31 37 42 44 48 55 63 68 63 75 76 76 74 75 69 62 56 48 45 43 43 42 41 39 36 34 34 36 33 29 28 29 27 27 31 37 36
19 17 17 19 22 20 24 29 29 33 38 41 52 60 63 65 74 73 68 73 72 65 59 54 44 35 34 32 31 33 31 31 32 34 29 27 25 25 23 25 29 34 34 34
17 15 13 14 17 16 19 22 23 28 33 39 47 54 47 55 62 58 63 67 65 58 55 48 40 31 29 29 30 28 29 30 33 28 25 23 21 22 22 26 29 31 31 27
14 13 10 9 13 15 15 20 25 30 32 41 44 48 49 52 56 63 63 64 59 56 52 47 36 34 31 28 27 29 29 30 26 23 20 20 21 18 21 24 25 25 23 17
14 11 9 5 8 13 17 20 26 32 40 44 47 50 51 59 57 61 64 64 60 55 49 45 37 35 32 32 33 32 29 25 23 18 18 18 15 17 20 19 21 20 15 8
14 11 7 3 9 13 18 22 26 34 40 49 49 54 60 64 63 64 66 62 58 54 51 44 38 36 35 34 33 31 29 24 19 18 20 16 15 17 17 19 17 15 11 10
11 8 6 3 9 14 18 23 28 33 39 42 50 54 60 65 66 70 71 65 58 53 45 43 41 40 37 34 35 33 25 21 18 22 20 16 13 15 17 15 13 12 13 11
11 8 4 3 6 13 17 23 29 35 39 43 50 61 71 74 71 67 68 64 60 54 44 42 41 41 39 38 35 28 24 21 19 18 18 14 15 15 15 13 12 12 9 10
10 10 5 2 6 12 17 24 31 34 43 53 57 64 67 66 68 68 67 65 61 51 49 47 46 42 40 39 33 29 25 21 21 15 14 12 13 15 13 12 11 10 8 8
10 9 6 0 8 13 19 25 32 40 53 58 65 68 69 74 75 74 68 65 57 48 50 47 45 43 43 38 32 29 23 22 20 17 12 12 13 14 11 10 6 6 7 4
7 7 6 5 12 16 21 27 35 48 59 63 66 68 73 76 75 73 72 65 44 51 50 48 45 43 42 36 33 27 22 21 19 15 13 13 12 12 8 5 8 11 10 8
6 7 5 6 12 18 23 30 42 57 63 62 67 72 77 78 77 76 72 56 52 54 47 47 46 43 39 33 29 25 22 20 17 14 15 14 12 11 6 9 16 15 14 12
6 7 7 5 10 17 26 37 51 64 64 64 72 77 77 77 79 76 66 58 58 56 49 50 47 41 37 31 25 22 21 20 15 13 14 13 12 10 8 14 22 23 20 18
Wind_Direction
246 246 245 246 245 244 244 241 239 242 242 244 245 241 236 243 249 252 251 252 253 253 252 250 251 254 257 260 261 265 270 272 276 285 288 288 289 293 292 295 301 303 305 303
249 249 249 247 247 246 245 243 241 240 243 245 244 243 240 242 244 248 252 254 254 256 254 253 253 249 252 255 259 264 268 272 277 281 283 285 289 287 291 298 302 303 302 300
252 251 250 249 249 248 246 246 244 242 243 246 244 245 242 243 245 246 252 252 251 254 257 258 256 255 255 255 260 264 268 273 277 278 282 285 288 291 296 297 300 301 298 298
255 253 252 251 248 249 248 247 245 245 245 244 244 242 243 245 244 247 248 252 250 251 252 254 258 259 260 259 260 265 270 273 276 277 280 284 292 293 293 297 299 295 295 297
259 255 254 252 252 251 248 249 248 247 245 245 245 245 241 246 247 247 248 248 249 251 252 253 256 259 260 261 264 267 271 272 276 279 281 283 289 289 292 296 293 291 294 298
261 258 255 253 252 251 252 250 250 249 248 246 246 248 244 242 245 246 246 246 247 249 250 251 255 259 260 261 266 268 270 271 275 278 281 283 289 289 290 290 289 290 294 298
263 261 259 257 254 254 253 252 252 252 252 252 248 246 247 243 243 242 243 245 246 248 249 252 254 255 259 261 264 268 267 269 273 274 279 281 282 286 286 287 287 290 297 294
268 264 260 260 257 253 253 252 251 251 252 251 250 249 244 240 243 241 240 242 244 244 245 249 253 254 255 259 263 264 266 269 272 275 275 278 281 283 283 283 286 293 290 293
273 265 262 258 256 254 252 251 248 248 248 248 249 248 245 242 238 241 239 237 238 241 245 248 250 250 253 256 258 262 264 266 268 271 273 275 279 280 279 283 289 287 287 296
275 265 258 255 251 250 247 249 249 246 243 244 244 242 242 241 235 235 235 236 236 239 242 246 248 250 252 254 256 258 260 264 266 268 271 273 275 277 279 285 285 282 288 298
277 270 263 254 249 248 245 243 243 242 241 239 240 239 239 233 230 229 232 231 232 235 238 240 242 242 246 249 253 255 258 259 262 265 268 271 273 275 281 281 278 280 290 296
285 277 266 257 247 242 239 236 236 235 236 233 233 232 234 231 225 225 227 228 229 227 229 232 236 240 244 246 247 249 251 255 259 262 266 267 270 276 274 272 274 284 294 297
290 277 265 258 252 246 240 237 231 230 232 228 227 223 222 217 217 223 219 222 225 226 224 227 232 236 238 242 243 244 247 251 254 259 260 262 272 269 268 273 279 283 295 296
292 276 265 259 255 253 245 242 230 225 222 215 215 217 216 213 198 208 210 212 216 218 218 220 225 230 235 238 238 238 239 244 249 251 254 262 257 262 269 275 280 290 294 293
300 283 265 255 260 246 225 228 225 218 215 213 215 220 215 202 206 204 199 205 209 210 210 211 216 225 228 227 226 226 232 237 240 245 249 243 255 261 268 278 283 290 294 292
313 297 272 252 251 243 226 222 224 214 210 210 209 217 216 209 203 198 198 200 203 201 203 203 208 213 210 212 216 219 223 227 235 239 233 247 254 259 273 283 284 293 297 288
327 308 276 255 240 236 227 217 211 198 197 208 202 203 196 195 195 191 191 192 193 194 194 191 195 193 199 206 210 212 219 227 229 224 239 250 253 268 278 283 292 301 295 285
334 312 293 268 234 213 206 207 203 197 192 193 196 194 187 181 182 185 184 182 185 186 181 181 183 189 196 205 207 209 214 213 216 230 240 238 256 271 280 294 304 300 284 261
341 331 317 250 212 208 205 200 196 196 191 190 191 184 179 173 177 179 175 178 178 175 172 172 180 188 194 201 204 201 201 205 215 231 228 237 262 281 292 307 307 292 263 231
343 335 317 250 200 204 200 192 188 187 191 187 182 180 171 169 174 174 172 171 172 166 171 168 182 193 196 197 196 195 195 207 217 233 228 250 278 294 304 309 297 273 248 232
343 332 317 231 184 200 198 188 184 185 183 175 172 169 169 170 172 167 162 168 163 164 167 172 186 189 190 193 190 190 198 205 228 239 239 261 293 297 303 302 288 261 248 247
338 327 317 294 175 192 189 185 185 181 170 165 162 165 166 162 158 164 165 161 164 160 171 175 181 189 188 190 189 195 201 212 230 229 243 274 290 300 300 294 277 252 228 248
342 325 321 88 166 185 184 184 181 170 164 157 160 162 161 160 162 158 161 161 155 164 173 177 187 184 186 187 190 195 205 220 234 227 254 278 289 302 298 286 243 215 222 223
338 329 302 182 178 177 178 179 172 164 160 161 161 160 159 161 157 157 157 155 157 169 172 180 184 183 186 187 191 196 208 225 235 231 260 281 294 305 295 258 207 206 222 226
344 339 322 213 188 174 171 171 164 161 162 163 158 159 160 160 155 156 156 154 163 172 171 183 181 185 186 189 196 198 213 228 229 233 267 275 297 294 260 200 194 201 211 213
24 357 333 208 180 168 164 166 161 161 166 161 159 159 162 158 155 156 153 159 167 171 182 180 180 184 186 190 191 199 213 224 226 239 261 276 295 280 259 223 206 207 217 217
Height
10591 10592 10596 10597 10603 10620 10620 10625 10645 10657 10658 10637 10653 10686 10716 10705 10704 10717 10722 10731 10736 10745 10754 10758 10765 10779 10786 10783 10787 10792 10795 10796 10796 10792 10788 10788 10785 10784 10779 10775 10771 10765 10757 10749
10569 10569 10567 10573 10581 10591 10595 10601 10620 10624 10630 10609 10641 10660 10691 10686 10693 10695 10701 10713 10723 10727 10732 10740 10750 10764 10767 10767 10774 10779 10783 10786 10784 10779 10777 10778 10777 10774 10770 10765 10760 10753 10746 10738
10547 10544 10544 10548 10553 10559 10567 10574 10587 10593 10593 10590 10622 10634 10658 10671 10672 10682 10684 10697 10706 10714 10718 10725 10734 10741 10747 10758 10763 10766 10771 10772 10770 10766 10768 10767 10765 10763 10761 10755 10750 10742 10735 10729
10521 10516 10516 10520 10528 10529 10535 10539 10550 10560 10564 10581 10592 10600 10631 10647 10658 10660 10675 10673 10688 10694 10703 10706 10714 10727 10735 10745 10748 10755 10757 10757 10756 10756 10758 10756 10753 10754 10750 10744 10739 10732 10726 10720
10494 10490 10488 10492 10497 10497 10511 10508 10516 10528 10539 10548 10558 10580 10622 10625 10635 10647 10650 10657 10662 10674 10686 10693 10699 10712 10721 10730 10734 10740 10742 10744 10742 10746 10744 10745 10743 10743 10738 10735 10727 10722 10717 10711
10465 10459 10460 10458 10467 10470 10473 10482 10485 10495 10506 10511 10550 10548 10589 10601 10612 10618 10624 10632 10647 10655 10664 10675 10685 10699 10710 10713 10720 10724 10726 10730 10730 10733 10732 10733 10732 10731 10728 10723 10717 10712 10707 10701
10437 10432 10432 10432 10441 10441 10445 10454 10457 10464 10473 10500 10514 10514 10547 10577 10579 10589 10595 10612 10624 10639 10650 10653 10672 10686 10696 10699 10706 10709 10713 10716 10718 10720 10721 10721 10720 10719 10717 10711 10707 10702 10696 10691
10412 10409 10404 10407 10410 10416 10416 10425 10431 10436 10451 10463 10470 10483 10519 10547 10544 10563 10587 10596 10603 10615 10621 10640 10662 10676 10676 10683 10690 10693 10699 10703 10705 10708 10709 10708 10708 10707 10704 10701 10698 10692 10688 10683
10387 10383 10382 10382 10384 10386 10390 10396 10403 10414 10430 10434 10445 10463 10486 10510 10528 10538 10556 10564 10577 10594 10613 10631 10649 10655 10659 10671 10676 10682 10687 10691 10694 10696 10697 10697 10697 10695 10692 10690 10689 10683 10680 10675
10365 10359 10362 10359 10362 10364 10371 10371 10383 10391 10402 10411 10420 10435 10460 10478 10510 10513 10523 10541 10571 10587 10599 10622 10634 10640 10646 10657 10662 10671 10675 10680 10683 10685 10687 10686 10686 10685 10682 10680 10678 10676 10673 10669
10347 10344 10344 10344 10346 10347 10352 10356 10363 10371 10381 10388 10402 10423 10426 10455 10477 10487 10494 10530 10555 10575 10595 10606 10617 10618 10631 10642 10650 10658 10665 10669 10673 10675 10677 10676 10676 10674 10673 10671 10669 10666 10665 10661
10333 10332 10332 10332 10329 10328 10332 10338 10347 10355 10357 10372 10386 10404 10418 10446 10465 10460 10497 10520 10538 10560 10577 10589 10600 10608 10620 10629 10637 10648 10654 10660 10663 10665 10667 10668 10667 10666 10665 10663 10661 10660 10657 10653
10324 10322 10320 10320 10318 10317 10322 10327 10334 10340 10352 10369 10380 10392 10405 10421 10443 10460 10483 10502 10528 10544 10564 10578 10589 10600 10610 10619 10628 10638 10645 10649 10653 10656 10658 10659 10659 10658 10657 10655 10654 10653 10649 10645
10314 10312 10311 10309 10307 10310 10316 10319 10325 10333 10345 10358 10364 10369 10382 10406 10405 10435 10463 10490 10509 10532 10553 10571 10583 10592 10602 10611 10620 10628 10634 10639 10645 10647 10649 10650 10651 10651 10649 10648 10647 10644 10641 10637
10307 10304 10303 10301 10300 10305 10308 10310 10319 10329 10339 10350 10357 10361 10371 10387 10409 10422 10456 10477 10498 10521 10544 10563 10577 10588 10597 10605 10614 10620 10626 10632 10635 10639 10642 10643 10644 10643 10642 10641 10639 10637 10633 10628
10303 10300 10299 10297 10297 10299 10304 10307 10315 10325 10337 10341 10352 10360 10378 10394 10413 10440 10454 10473 10495 10520 10541 10560 10573 10585 10593 10600 10607 10614 10619 10624 10628 10632 10635 10636 10636 10637 10636 10635 10632 10628 10624 10620
10300 10297 10296 10296 10296 10297 10300 10303 10309 10316 10329 10334 10347 10355 10371 10391 10414 10430 10449 10470 10495 10515 10536 10556 10570 10581 10587 10595 10602 10607 10613 10618 10623 10627 10629 10630 10631 10632 10631 10629 10625 10620 10617 10615
10299 10296 10294 10295 10294 10295 10296 10300 10305 10312 10318 10326 10338 10353 10372 10386 10412 10431 10449 10469 10491 10513 10535 10553 10566 10575 10583 10590 10596 10602 10608 10613 10619 10621 10623 10625 10626 10627 10625 10621 10617 10614 10613 10613
10298 10296 10295 10294 10294 10294 10295 10298 10302 10309 10315 10321 10335 10353 10369 10388 10408 10428 10449 10472 10493 10511 10530 10548 10561 10570 10576 10584 10591 10598 10604 10609 10613 10616 10619 10621 10623 10621 10617 10614 10611 10611 10610 10612
10298 10296 10295 10295 10294 10294 10295 10298 10302 10308 10317 10328 10340 10356 10374 10394 10411 10427 10444 10469 10493 10516 10535 10545 10556 10565 10574 10581 10588 10594 10601 10606 10610 10612 10615 10617 10617 10614 10611 10608 10608 10609 10609 10610
10299 10297 10296 10295 10295 10296 10298 10301 10305 10309 10319 10331 10345 10357 10367 10382 10407 10436 10452 10472 10495 10515 10532 10545 10554 10562 10570 10578 10585 10593 10599 10603 10607 10609 10611 10612 10611 10608 10605 10604 10606 10606 10607 10608
10300 10299 10297 10297 10297 10297 10300 10304 10307 10314 10324 10333 10349 10364 10381 10403 10421 10439 10461 10478 10496 10515 10529 10539 10551 10560 10568 10576 10584 10591 10597 10601 10603 10606 10607 10606 10606 10603 10601 10601 10602 10604 10606 10607
10302 10300 10299 10298 10298 10299 10301 10305 10310 10320 10329 10342 10355 10369 10387 10403 10419 10438 10463 10484 10500 10516 10530 10538 10548 10558 10565 10574 10583 10589 10594 10598 10600 10601 10602 10602 10602 10599 10597 10598 10599 10602 10605 10607
10303 10302 10300 10300 10299 10300 10304 10307 10315 10326 10336 10347 10362 10378 10393 10410 10428 10447 10465 10487 10504 10516 10527 10537 10548 10557 10565 10573 10580 10587 10592 10595 10597 10598 10598 10598 10598 10596 10595 10596 10599 10602 10604 10606
10303 10303 10302 10302 10301 10303 10306 10311 10319 10331 10343 10356 10370 10385 10399 10414 10431 10451 10469 10488 10505 10519 10531 10540 10548 10556 10563 10572 10579 10584 10589 10591 10593 10595 10596 10595 10595 10594 10594 10594 10597 10600 10602 10604
10305 10304 10304 10304 10305 10307 10310 10317 10325 10337 10349 10364 10377 10391 10408 10422 10439 10458 10472 10491 10507 10522 10528 10537 10546 10555 10563 10569 10576 10581 10585 10587 10590 10593 10593 10593 10592 10591 10591 10592 10594 10597 10598 10600